contact:dominique.lefevre@mio.osupytheas.fr, maurice.libes@osupytheas.fr, didier.mallarino@osupytheas.fr
Project:EMSO http://www.emso-fr.org/EMSO-France
Depth: 2436.0 m
Title:EMSO Ligure Ouest : Data MII capteur MICROCAT
DateTime_Computer,Latitude,Longitude,Temperature,Conductivity,Pressure,DateTime_Instrument
DateTime_Computer,Latitude,Longitude,degC,S m-1,dbar,DateTime_Instrument
2020-04-16T00:01:56Z,42.805,6.029,13.2983,4.59995,2470.11,2020-4-16T02:02:36Z
2020-04-16T00:05:00Z,42.805,6.029,13.2972,4.60006,2470.11,2020-4-16T02:05:39Z
2020-04-16T00:08:03Z,42.805,6.029,13.2986,4.59999,2470.1,2020-4-16T02:08:42Z
2020-04-16T00:11:06Z,42.805,6.029,13.2986,4.59994,2470.133,2020-4-16T02:11:46Z
2020-04-16T00:14:09Z,42.805,6.029,13.2980,4.60005,2470.11,2020-4-16T02:14:49Z
2020-04-16T00:17:12Z,42.805,6.029,13.2985,4.60006,2470.11,2020-4-16T02:17:52Z
2020-04-16T00:20:16Z,42.805,6.029,13.2986,4.59999,2470.124,2020-4-16T02:20:55Z
2020-04-16T00:23:19Z,42.805,6.029,13.2988,4.60001,2470.087,2020-4-16T02:23:59Z
2020-04-16T00:26:22Z,42.805,6.029,13.2988,4.60003,2470.11,2020-4-16T02:27:02Z
2020-04-16T00:29:25Z,42.805,6.029,13.2982,4.60003,2470.133,2020-4-16T02:30:05Z
2020-04-16T00:32:29Z,42.805,6.029,13.2985,4.59996,2470.124,2020-4-16T02:33:08Z
2020-04-16T00:35:32Z,42.805,6.029,13.2985,4.60004,2470.133,2020-4-16T02:36:11Z
2020-04-16T00:38:35Z,42.805,6.029,13.2979,4.59990,2470.133,2020-4-16T02:39:15Z
2020-04-16T00:41:38Z,42.805,6.029,13.2984,4.60002,2470.11,2020-4-16T02:42:18Z
2020-04-16T00:44:41Z,42.805,6.029,13.2985,4.60003,2470.124,2020-4-16T02:45:21Z
2020-04-16T00:47:45Z,42.805,6.029,13.2981,4.59997,2470.11,2020-4-16T02:48:24Z
2020-04-16T00:50:48Z,42.805,6.029,13.2977,4.60001,2470.156,2020-4-16T02:51:28Z
2020-04-16T00:53:51Z,42.805,6.029,13.2983,4.59998,2470.124,2020-4-16T02:54:31Z
2020-04-16T00:56:54Z,42.805,6.029,13.2985,4.60010,2470.133,2020-4-16T02:57:34Z
2020-04-16T00:59:58Z,42.805,6.029,13.2979,4.59998,2470.11,2020-4-16T03:00:37Z
2020-04-16T01:03:01Z,42.805,6.029,13.2982,4.59993,2470.171,2020-4-16T03:03:41Z
2020-04-16T01:06:04Z,42.805,6.029,13.2980,4.59996,2470.124,2020-4-16T03:06:44Z
2020-04-16T01:09:07Z,42.805,6.029,13.2991,4.60009,2470.133,2020-4-16T03:09:47Z
2020-04-16T01:12:11Z,42.805,6.029,13.2991,4.59996,2470.133,2020-4-16T03:12:50Z
2020-04-16T01:15:14Z,42.805,6.029,13.2982,4.59997,2470.133,2020-4-16T03:15:54Z
2020-04-16T01:18:17Z,42.805,6.029,13.2993,4.60005,2470.124,2020-4-16T03:18:57Z
2020-04-16T01:21:21Z,42.805,6.029,13.2987,4.60009,2470.171,2020-4-16T03:22:00Z
2020-04-16T01:24:24Z,42.805,6.029,13.2980,4.60001,2470.147,2020-4-16T03:25:03Z
2020-04-16T01:27:27Z,42.805,6.029,13.2983,4.60009,2470.133,2020-4-16T03:28:07Z
2020-04-16T01:30:30Z,42.805,6.029,13.2979,4.59999,2470.124,2020-4-16T03:31:10Z
2020-04-16T01:33:33Z,42.805,6.029,13.2988,4.59998,2470.133,2020-4-16T03:34:13Z
2020-04-16T01:36:37Z,42.805,6.029,13.2985,4.59993,2470.133,2020-4-16T03:37:16Z
2020-04-16T01:39:40Z,42.805,6.029,13.2974,4.59992,2470.147,2020-4-16T03:40:20Z
2020-04-16T01:42:43Z,42.805,6.029,13.2982,4.60006,2470.147,2020-4-16T03:43:23Z
2020-04-16T01:45:46Z,42.805,6.029,13.2980,4.59986,2470.147,2020-4-16T03:46:26Z
2020-04-16T01:48:50Z,42.805,6.029,13.2973,4.59983,2470.147,2020-4-16T03:49:29Z
2020-04-16T01:51:53Z,42.805,6.029,13.2983,4.59998,2470.156,2020-4-16T03:52:33Z
2020-04-16T01:54:56Z,42.805,6.029,13.2988,4.59997,2470.147,2020-4-16T03:55:36Z
2020-04-16T01:57:59Z,42.805,6.029,13.2982,4.60008,2470.133,2020-4-16T03:58:39Z
2020-04-16T02:01:03Z,42.805,6.029,13.2982,4.60001,2470.124,2020-4-16T04:01:42Z
2020-04-16T02:04:06Z,42.805,6.029,13.2977,4.60003,2470.133,2020-4-16T04:04:45Z
2020-04-16T02:07:09Z,42.805,6.029,13.2983,4.59999,2470.133,2020-4-16T04:07:49Z
2020-04-16T02:10:12Z,42.805,6.029,13.2985,4.60001,2470.133,2020-4-16T04:10:52Z
2020-04-16T02:13:16Z,42.805,6.029,13.2982,4.60000,2470.11,2020-4-16T04:13:55Z
2020-04-16T02:16:19Z,42.805,6.029,13.2982,4.60005,2470.147,2020-4-16T04:16:58Z
2020-04-16T02:19:22Z,42.805,6.029,13.2983,4.59999,2470.124,2020-4-16T04:20:02Z
2020-04-16T02:22:25Z,42.805,6.029,13.2985,4.60000,2470.133,2020-4-16T04:23:05Z
2020-04-16T02:25:28Z,42.805,6.029,13.2976,4.59992,2470.147,2020-4-16T04:26:08Z
2020-04-16T02:28:32Z,42.805,6.029,13.2988,4.60003,2470.133,2020-4-16T04:29:11Z
2020-04-16T02:31:35Z,42.805,6.029,13.2981,4.59990,2470.133,2020-4-16T04:32:15Z
2020-04-16T02:34:38Z,42.805,6.029,13.2985,4.60002,2470.147,2020-4-16T04:35:18Z
2020-04-16T02:37:42Z,42.805,6.029,13.2983,4.60003,2470.147,2020-4-16T04:38:21Z
2020-04-16T02:40:45Z,42.805,6.029,13.2982,4.60007,2470.124,2020-4-16T04:41:24Z
2020-04-16T02:43:48Z,42.805,6.029,13.2979,4.59988,2470.147,2020-4-16T04:44:28Z
2020-04-16T02:46:51Z,42.805,6.029,13.2980,4.60000,2470.133,2020-4-16T04:47:31Z
2020-04-16T02:49:54Z,42.805,6.029,13.2979,4.59996,2470.156,2020-4-16T04:50:34Z
2020-04-16T02:52:58Z,42.805,6.029,13.2977,4.59996,2470.11,2020-4-16T04:53:37Z
2020-04-16T02:56:01Z,42.805,6.029,13.2979,4.59989,2470.133,2020-4-16T04:56:41Z
2020-04-16T02:59:04Z,42.805,6.029,13.2978,4.60000,2470.171,2020-4-16T04:59:44Z
2020-04-16T03:02:07Z,42.805,6.029,13.2988,4.59990,2470.1,2020-4-16T05:02:47Z
2020-04-16T03:05:11Z,42.805,6.029,13.2977,4.59994,2470.171,2020-4-16T05:05:50Z
2020-04-16T03:08:14Z,42.805,6.029,13.2977,4.59998,2470.156,2020-4-16T05:08:54Z
2020-04-16T03:11:17Z,42.805,6.029,13.2979,4.59984,2470.133,2020-4-16T05:11:57Z
2020-04-16T03:14:20Z,42.805,6.029,13.2980,4.59981,2470.133,2020-4-16T05:15:00Z
2020-04-16T03:17:24Z,42.805,6.029,13.2982,4.59986,2470.147,2020-4-16T05:18:03Z
2020-04-16T03:20:27Z,42.805,6.029,13.2982,4.59994,2470.133,2020-4-16T05:21:07Z
2020-04-16T03:23:30Z,42.805,6.029,13.2985,4.59999,2470.171,2020-4-16T05:24:10Z
2020-04-16T03:26:33Z,42.805,6.029,13.2979,4.59989,2470.156,2020-4-16T05:27:13Z
2020-04-16T03:29:37Z,42.805,6.029,13.2983,4.59996,2470.133,2020-4-16T05:30:16Z
2020-04-16T03:32:40Z,42.805,6.029,13.2982,4.59995,2470.133,2020-4-16T05:33:20Z
2020-04-16T03:35:43Z,42.805,6.029,13.2989,4.59999,2470.147,2020-4-16T05:36:23Z
2020-04-16T03:38:46Z,42.805,6.029,13.2974,4.59986,2470.133,2020-4-16T05:39:26Z
2020-04-16T03:41:50Z,42.805,6.029,13.2978,4.59983,2470.156,2020-4-16T05:42:29Z
2020-04-16T03:44:53Z,42.805,6.029,13.2984,4.59997,2470.133,2020-4-16T05:45:33Z
2020-04-16T03:47:56Z,42.805,6.029,13.2980,4.59983,2470.124,2020-4-16T05:48:36Z
2020-04-16T03:50:59Z,42.805,6.029,13.2979,4.59993,2470.133,2020-4-16T05:51:39Z
2020-04-16T03:54:03Z,42.805,6.029,13.2982,4.59994,2470.156,2020-4-16T05:54:42Z
2020-04-16T03:57:06Z,42.805,6.029,13.2983,4.59994,2470.147,2020-4-16T05:57:46Z
2020-04-16T04:00:09Z,42.805,6.029,13.2975,4.59982,2470.156,2020-4-16T06:00:49Z
2020-04-16T04:03:12Z,42.805,6.029,13.2974,4.59988,2470.194,2020-4-16T06:03:52Z
2020-04-16T04:06:16Z,42.805,6.029,13.2985,4.59994,2470.171,2020-4-16T06:06:55Z
2020-04-16T04:09:19Z,42.805,6.029,13.2984,4.59991,2470.18,2020-4-16T06:09:59Z
2020-04-16T04:12:22Z,42.805,6.029,13.2980,4.59986,2470.156,2020-4-16T06:13:02Z
2020-04-16T04:15:25Z,42.805,6.029,13.2978,4.59982,2470.156,2020-4-16T06:16:05Z
2020-04-16T04:18:28Z,42.805,6.029,13.2979,4.59993,2470.147,2020-4-16T06:19:08Z
2020-04-16T04:21:32Z,42.805,6.029,13.2986,4.59986,2470.156,2020-4-16T06:22:12Z
2020-04-16T04:24:35Z,42.805,6.029,13.2980,4.59994,2470.171,2020-4-16T06:25:15Z
2020-04-16T04:27:38Z,42.805,6.029,13.2982,4.59986,2470.156,2020-4-16T06:28:18Z
2020-04-16T04:30:42Z,42.805,6.029,13.2979,4.59989,2470.156,2020-4-16T06:31:21Z
2020-04-16T04:33:45Z,42.805,6.029,13.2975,4.59986,2470.133,2020-4-16T06:34:25Z
2020-04-16T04:36:48Z,42.805,6.029,13.2978,4.59984,2470.133,2020-4-16T06:37:28Z
2020-04-16T04:39:51Z,42.805,6.029,13.2982,4.59998,2470.194,2020-4-16T06:40:31Z
2020-04-16T04:42:55Z,42.805,6.029,13.2979,4.59983,2470.133,2020-4-16T06:43:34Z
2020-04-16T04:45:58Z,42.805,6.029,13.2975,4.59981,2470.11,2020-4-16T06:46:38Z
2020-04-16T04:49:01Z,42.805,6.029,13.2974,4.59982,2470.147,2020-4-16T06:49:41Z
2020-04-16T04:52:04Z,42.805,6.029,13.2980,4.59987,2470.133,2020-4-16T06:52:44Z
2020-04-16T04:55:08Z,42.805,6.029,13.2978,4.59983,2470.124,2020-4-16T06:55:47Z
2020-04-16T04:58:11Z,42.805,6.029,13.2979,4.59987,2470.156,2020-4-16T06:58:50Z
2020-04-16T05:01:14Z,42.805,6.029,13.2975,4.59979,2470.147,2020-4-16T07:01:54Z
2020-04-16T05:04:17Z,42.805,6.029,13.2983,4.59989,2470.156,2020-4-16T07:04:57Z
2020-04-16T05:07:21Z,42.805,6.029,13.2977,4.59984,2470.133,2020-4-16T07:08:00Z
2020-04-16T05:10:24Z,42.805,6.029,13.2981,4.59988,2470.156,2020-4-16T07:11:04Z
2020-04-16T05:13:27Z,42.805,6.029,13.2978,4.59995,2470.133,2020-4-16T07:14:07Z
2020-04-16T05:16:30Z,42.805,6.029,13.2974,4.59991,2470.11,2020-4-16T07:17:10Z
2020-04-16T05:19:34Z,42.805,6.029,13.2983,4.59991,2470.147,2020-4-16T07:20:13Z
2020-04-16T05:22:37Z,42.805,6.029,13.2979,4.59994,2470.133,2020-4-16T07:23:16Z
2020-04-16T05:25:40Z,42.805,6.029,13.2977,4.59983,2470.156,2020-4-16T07:26:20Z
2020-04-16T05:28:43Z,42.805,6.029,13.2977,4.59990,2470.133,2020-4-16T07:29:23Z
2020-04-16T05:31:47Z,42.805,6.029,13.2975,4.59986,2470.133,2020-4-16T07:32:26Z
2020-04-16T05:34:50Z,42.805,6.029,13.2976,4.59979,2470.124,2020-4-16T07:35:30Z
2020-04-16T05:37:53Z,42.805,6.029,13.2977,4.59982,2470.147,2020-4-16T07:38:33Z
2020-04-16T05:40:56Z,42.805,6.029,13.2982,4.59995,2470.087,2020-4-16T07:41:36Z
2020-04-16T05:44:00Z,42.805,6.029,13.2980,4.59996,2470.133,2020-4-16T07:44:39Z
2020-04-16T05:47:03Z,42.805,6.029,13.2977,4.59988,2470.133,2020-4-16T07:47:43Z
2020-04-16T05:50:06Z,42.805,6.029,13.2979,4.59983,2470.147,2020-4-16T07:50:46Z
2020-04-16T05:53:10Z,42.805,6.029,13.2983,4.59996,2470.133,2020-4-16T07:53:49Z
2020-04-16T05:56:13Z,42.805,6.029,13.2984,4.59986,2470.147,2020-4-16T07:56:52Z
2020-04-16T05:59:16Z,42.805,6.029,13.2974,4.59984,2470.11,2020-4-16T07:59:56Z
2020-04-16T06:02:19Z,42.805,6.029,13.2977,4.59992,2470.11,2020-4-16T08:02:59Z
2020-04-16T06:05:22Z,42.805,6.029,13.2977,4.59982,2470.147,2020-4-16T08:06:02Z
2020-04-16T06:08:26Z,42.805,6.029,13.2982,4.59996,2470.133,2020-4-16T08:09:05Z
2020-04-16T06:11:29Z,42.805,6.029,13.2979,4.59986,2470.11,2020-4-16T08:12:09Z
2020-04-16T06:14:32Z,42.805,6.029,13.2983,4.59994,2470.11,2020-4-16T08:15:12Z
2020-04-16T06:17:35Z,42.805,6.029,13.2980,4.59984,2470.087,2020-4-16T08:18:15Z
2020-04-16T06:20:39Z,42.805,6.029,13.2978,4.59992,2470.133,2020-4-16T08:21:18Z
2020-04-16T06:23:42Z,42.805,6.029,13.2974,4.59988,2470.147,2020-4-16T08:24:22Z
2020-04-16T06:26:45Z,42.805,6.029,13.2977,4.59993,2470.087,2020-4-16T08:27:25Z
2020-04-16T06:29:48Z,42.805,6.029,13.2979,4.59991,2470.11,2020-4-16T08:30:28Z
2020-04-16T06:32:52Z,42.805,6.029,13.2971,4.60001,2470.087,2020-4-16T08:33:31Z
2020-04-16T06:35:55Z,42.805,6.029,13.2982,4.59986,2470.147,2020-4-16T08:36:35Z
2020-04-16T06:38:58Z,42.805,6.029,13.2978,4.59981,2470.11,2020-4-16T08:39:38Z
2020-04-16T06:42:02Z,42.805,6.029,13.2976,4.59986,2470.124,2020-4-16T08:42:41Z
2020-04-16T06:45:05Z,42.805,6.029,13.2982,4.59988,2470.124,2020-4-16T08:45:44Z
2020-04-16T06:48:08Z,42.805,6.029,13.2985,4.59998,2470.077,2020-4-16T08:48:48Z
2020-04-16T06:51:11Z,42.805,6.029,13.2982,4.59994,2470.11,2020-4-16T08:51:51Z
2020-04-16T06:54:14Z,42.805,6.029,13.2979,4.59999,2470.087,2020-4-16T08:54:54Z
2020-04-16T06:57:18Z,42.805,6.029,13.2974,4.59981,2470.1,2020-4-16T08:57:57Z
2020-04-16T07:00:21Z,42.805,6.029,13.2977,4.59991,2470.087,2020-4-16T09:01:01Z
2020-04-16T07:03:24Z,42.805,6.029,13.2979,4.59996,2470.11,2020-4-16T09:04:04Z
2020-04-16T07:06:28Z,42.805,6.029,13.2979,4.59988,2470.077,2020-4-16T09:07:07Z
2020-04-16T07:09:31Z,42.805,6.029,13.2974,4.59990,2470.124,2020-4-16T09:10:11Z
2020-04-16T07:12:34Z,42.805,6.029,13.2980,4.59995,2470.087,2020-4-16T09:13:14Z
2020-04-16T07:15:37Z,42.805,6.029,13.2983,4.59992,2470.1,2020-4-16T09:16:17Z
2020-04-16T07:18:41Z,42.805,6.029,13.2982,4.59994,2470.1,2020-4-16T09:19:20Z
2020-04-16T07:21:44Z,42.805,6.029,13.2981,4.59994,2470.04,2020-4-16T09:22:23Z
2020-04-16T07:24:47Z,42.805,6.029,13.2980,4.59984,2470.063,2020-4-16T09:25:27Z
2020-04-16T07:27:50Z,42.805,6.029,13.2979,4.59999,2470.1,2020-4-16T09:28:30Z
2020-04-16T07:30:54Z,42.805,6.029,13.2983,4.59998,2470.077,2020-4-16T09:31:33Z
2020-04-16T07:33:57Z,42.805,6.029,13.2979,4.59990,2470.1,2020-4-16T09:34:36Z
2020-04-16T07:37:00Z,42.805,6.029,13.2980,4.59982,2470.077,2020-4-16T09:37:40Z
2020-04-16T07:40:03Z,42.805,6.029,13.2987,4.59988,2470.063,2020-4-16T09:40:43Z
2020-04-16T07:43:07Z,42.805,6.029,13.2979,4.59989,2470.04,2020-4-16T09:43:46Z
2020-04-16T07:46:10Z,42.805,6.029,13.2985,4.59989,2470.077,2020-4-16T09:46:50Z
2020-04-16T07:49:13Z,42.805,6.029,13.2974,4.59983,2470.077,2020-4-16T09:49:53Z
2020-04-16T07:52:16Z,42.805,6.029,13.2977,4.59981,2470.053,2020-4-16T09:52:56Z
2020-04-16T07:55:20Z,42.805,6.029,13.2976,4.59988,2470.077,2020-4-16T09:55:59Z
2020-04-16T07:58:23Z,42.805,6.029,13.2975,4.59991,2470.063,2020-4-16T09:59:03Z
2020-04-16T08:01:26Z,42.805,6.029,13.2984,4.59981,2470.04,2020-4-16T10:02:06Z
2020-04-16T08:04:29Z,42.805,6.029,13.2983,4.59996,2470.077,2020-4-16T10:05:09Z
2020-04-16T08:07:33Z,42.805,6.029,13.2982,4.59981,2470.077,2020-4-16T10:08:12Z
2020-04-16T08:10:36Z,42.805,6.029,13.2981,4.59990,2470.049,2020-4-16T10:11:16Z
2020-04-16T08:13:39Z,42.805,6.029,13.2980,4.59993,2470.077,2020-4-16T10:14:19Z
2020-04-16T08:16:42Z,42.805,6.029,13.2975,4.59991,2470.04,2020-4-16T10:17:22Z
2020-04-16T08:19:46Z,42.805,6.029,13.2975,4.59991,2470.077,2020-4-16T10:20:25Z
2020-04-16T08:22:49Z,42.805,6.029,13.2990,4.59997,2470.053,2020-4-16T10:23:29Z
2020-04-16T08:25:52Z,42.805,6.029,13.2979,4.59995,2470.077,2020-4-16T10:26:32Z
2020-04-16T08:28:55Z,42.805,6.029,13.2983,4.59990,2470.017,2020-4-16T10:29:35Z
2020-04-16T08:31:59Z,42.805,6.029,13.2985,4.59990,2470.04,2020-4-16T10:32:38Z
2020-04-16T08:35:02Z,42.805,6.029,13.2982,4.59991,2470.04,2020-4-16T10:35:41Z
2020-04-16T08:38:05Z,42.805,6.029,13.2980,4.59986,2470.04,2020-4-16T10:38:45Z
2020-04-16T08:41:08Z,42.805,6.029,13.2976,4.59992,2470.017,2020-4-16T10:41:48Z
2020-04-16T08:44:12Z,42.805,6.029,13.2982,4.59989,2470.053,2020-4-16T10:44:51Z
2020-04-16T08:47:15Z,42.805,6.029,13.2982,4.59996,2470.04,2020-4-16T10:47:55Z
2020-04-16T08:50:18Z,42.805,6.029,13.2981,4.59979,2470.017,2020-4-16T10:50:58Z
2020-04-16T08:53:21Z,42.805,6.029,13.2983,4.59997,2470.053,2020-4-16T10:54:01Z
2020-04-16T08:56:25Z,42.805,6.029,13.2982,4.59994,2470.04,2020-4-16T10:57:04Z
2020-04-16T08:59:28Z,42.805,6.029,13.2983,4.59982,2470.03,2020-4-16T11:00:07Z
2020-04-16T09:02:31Z,42.805,6.029,13.2975,4.59993,2470.063,2020-4-16T11:03:11Z
2020-04-16T09:05:34Z,42.805,6.029,13.2979,4.59983,2470.04,2020-4-16T11:06:14Z
2020-04-16T09:08:38Z,42.805,6.029,13.2979,4.59986,2470.077,2020-4-16T11:09:17Z
2020-04-16T09:11:41Z,42.805,6.029,13.2984,4.59989,2470.063,2020-4-16T11:12:21Z
2020-04-16T09:14:44Z,42.805,6.029,13.2988,4.59993,2470.04,2020-4-16T11:15:24Z
2020-04-16T09:17:48Z,42.805,6.029,13.2974,4.59987,2470.017,2020-4-16T11:18:27Z
2020-04-16T09:20:51Z,42.805,6.029,13.2996,4.60006,2470.017,2020-4-16T11:21:30Z
2020-04-16T09:23:54Z,42.805,6.029,13.2983,4.59975,2470.017,2020-4-16T11:24:34Z
2020-04-16T09:26:57Z,42.805,6.029,13.2976,4.59983,2470.017,2020-4-16T11:27:37Z
2020-04-16T09:30:01Z,42.805,6.029,13.2982,4.59981,2470.053,2020-4-16T11:30:40Z
2020-04-16T09:33:04Z,42.805,6.029,13.2982,4.59981,2470.03,2020-4-16T11:33:43Z
2020-04-16T09:36:07Z,42.805,6.029,13.2982,4.59998,2470.053,2020-4-16T11:36:47Z
2020-04-16T09:39:10Z,42.805,6.029,13.2982,4.60003,2470.03,2020-4-16T11:39:50Z
2020-04-16T09:42:13Z,42.805,6.029,13.2982,4.59987,2470.053,2020-4-16T11:42:53Z
2020-04-16T09:45:17Z,42.805,6.029,13.2976,4.59982,2470.063,2020-4-16T11:45:56Z
2020-04-16T09:48:20Z,42.805,6.029,13.2982,4.59994,2470.03,2020-4-16T11:49:00Z
2020-04-16T09:51:23Z,42.805,6.029,13.2986,4.60003,2470.053,2020-4-16T11:52:03Z
2020-04-16T09:54:26Z,42.805,6.029,13.2983,4.59986,2470.053,2020-4-16T11:55:06Z
2020-04-16T09:57:30Z,42.805,6.029,13.2981,4.59982,2470.017,2020-4-16T11:58:09Z
2020-04-16T10:00:33Z,42.805,6.029,13.2985,4.59998,2470.04,2020-4-16T12:01:13Z
2020-04-16T10:03:36Z,42.805,6.029,13.2988,4.60009,2470.007,2020-4-16T12:04:16Z
2020-04-16T10:06:39Z,42.805,6.029,13.2977,4.59978,2470.03,2020-4-16T12:07:19Z
2020-04-16T10:09:42Z,42.805,6.029,13.2979,4.59974,2470.063,2020-4-16T12:10:22Z
2020-04-16T10:12:46Z,42.805,6.029,13.2978,4.59975,2470.007,2020-4-16T12:13:25Z
2020-04-16T10:15:49Z,42.805,6.029,13.2982,4.60004,2470.04,2020-4-16T12:16:29Z
2020-04-16T10:18:52Z,42.805,6.029,13.2979,4.59975,2470.03,2020-4-16T12:19:32Z
2020-04-16T10:21:56Z,42.805,6.029,13.2983,4.59983,2469.993,2020-4-16T12:22:35Z
2020-04-16T10:24:59Z,42.805,6.029,13.2982,4.59983,2469.993,2020-4-16T12:25:38Z
2020-04-16T10:28:02Z,42.805,6.029,13.2993,4.59986,2470.007,2020-4-16T12:28:42Z
2020-04-16T10:31:05Z,42.805,6.029,13.2982,4.59994,2470.017,2020-4-16T12:31:45Z
2020-04-16T10:34:08Z,42.805,6.029,13.2994,4.60001,2470.03,2020-4-16T12:34:48Z
2020-04-16T10:37:12Z,42.805,6.029,13.2977,4.59980,2469.993,2020-4-16T12:37:51Z
2020-04-16T10:40:15Z,42.805,6.029,13.2986,4.59981,2470.04,2020-4-16T12:40:55Z
2020-04-16T10:43:18Z,42.805,6.029,13.2983,4.59978,2470.04,2020-4-16T12:43:58Z
2020-04-16T10:46:21Z,42.805,6.029,13.2974,4.59983,2470.053,2020-4-16T12:47:01Z
2020-04-16T10:49:25Z,42.805,6.029,13.2983,4.59993,2470.017,2020-4-16T12:50:04Z
2020-04-16T10:52:28Z,42.805,6.029,13.2983,4.59993,2470.017,2020-4-16T12:53:08Z
2020-04-16T10:55:31Z,42.805,6.029,13.2986,4.59994,2470.03,2020-4-16T12:56:11Z
2020-04-16T10:58:34Z,42.805,6.029,13.2981,4.59991,2470.03,2020-4-16T12:59:14Z
2020-04-16T11:01:38Z,42.805,6.029,13.2982,4.59979,2470.063,2020-4-16T13:02:17Z
2020-04-16T11:04:41Z,42.805,6.029,13.2983,4.59983,2469.993,2020-4-16T13:05:21Z
2020-04-16T11:07:44Z,42.805,6.029,13.2984,4.59994,2470.077,2020-4-16T13:08:24Z
2020-04-16T11:10:48Z,42.805,6.029,13.2985,4.59984,2470.017,2020-4-16T13:11:27Z
2020-04-16T11:13:51Z,42.805,6.029,13.2976,4.59995,2470.007,2020-4-16T13:14:31Z
2020-04-16T11:16:54Z,42.805,6.029,13.2976,4.59978,2470.007,2020-4-16T13:17:34Z
2020-04-16T11:19:57Z,42.805,6.029,13.2984,4.59988,2470.017,2020-4-16T13:20:37Z
2020-04-16T11:23:01Z,42.805,6.029,13.2988,4.59998,2470.017,2020-4-16T13:23:40Z
2020-04-16T11:26:04Z,42.805,6.029,13.2990,4.59986,2470.03,2020-4-16T13:26:44Z
2020-04-16T11:29:07Z,42.805,6.029,13.2977,4.59998,2470.017,2020-4-16T13:29:47Z
2020-04-16T11:32:10Z,42.805,6.029,13.2981,4.60000,2470.04,2020-4-16T13:32:50Z
2020-04-16T11:35:14Z,42.805,6.029,13.2976,4.59994,2470.017,2020-4-16T13:35:53Z
2020-04-16T11:38:17Z,42.805,6.029,13.2986,4.60005,2470.017,2020-4-16T13:38:57Z
2020-04-16T11:41:20Z,42.805,6.029,13.2976,4.59988,2470.03,2020-4-16T13:42:00Z
2020-04-16T11:44:23Z,42.805,6.029,13.2976,4.59976,2470.04,2020-4-16T13:45:03Z
2020-04-16T11:47:27Z,42.805,6.029,13.2976,4.59986,2470.053,2020-4-16T13:48:06Z
2020-04-16T11:50:30Z,42.805,6.029,13.2983,4.59994,2470.017,2020-4-16T13:51:10Z
2020-04-16T11:53:33Z,42.805,6.029,13.2979,4.59981,2470.04,2020-4-16T13:54:13Z
2020-04-16T11:56:36Z,42.805,6.029,13.2978,4.59981,2470.007,2020-4-16T13:57:16Z
2020-04-16T11:59:40Z,42.805,6.029,13.2979,4.59988,2470.053,2020-4-16T14:00:19Z
2020-04-16T12:02:43Z,42.805,6.029,13.2979,4.59990,2470.04,2020-4-16T14:03:23Z
2020-04-16T12:05:46Z,42.805,6.029,13.2980,4.59994,2470.04,2020-4-16T14:06:26Z
2020-04-16T12:08:49Z,42.805,6.029,13.2976,4.59989,2470.04,2020-4-16T14:09:29Z
2020-04-16T12:11:53Z,42.805,6.029,13.2982,4.59996,2470.04,2020-4-16T14:12:32Z
2020-04-16T12:14:56Z,42.805,6.029,13.2983,4.59983,2470.053,2020-4-16T14:15:36Z
2020-04-16T12:17:59Z,42.805,6.029,13.2976,4.59985,2470.03,2020-4-16T14:18:39Z
2020-04-16T12:21:02Z,42.805,6.029,13.2988,4.60000,2470.03,2020-4-16T14:21:42Z
2020-04-16T12:24:06Z,42.805,6.029,13.2983,4.59978,2470.063,2020-4-16T14:24:45Z
2020-04-16T12:27:09Z,42.805,6.029,13.2981,4.59984,2470.003,2020-4-16T14:27:49Z
2020-04-16T12:30:12Z,42.805,6.029,13.2982,4.59997,2470.053,2020-4-16T14:30:52Z
2020-04-16T12:33:15Z,42.805,6.029,13.2979,4.59973,2470.03,2020-4-16T14:33:55Z
2020-04-16T12:36:19Z,42.805,6.029,13.2981,4.59994,2470.063,2020-4-16T14:36:58Z
2020-04-16T12:39:22Z,42.805,6.029,13.2979,4.59986,2470.03,2020-4-16T14:40:01Z
2020-04-16T12:42:25Z,42.805,6.029,13.2977,4.59976,2470.053,2020-4-16T14:43:05Z
2020-04-16T12:45:28Z,42.805,6.029,13.2976,4.59988,2470.03,2020-4-16T14:46:08Z
2020-04-16T12:48:32Z,42.805,6.029,13.2984,4.59984,2470.017,2020-4-16T14:49:11Z
2020-04-16T12:51:35Z,42.805,6.029,13.2979,4.59976,2469.993,2020-4-16T14:52:15Z
2020-04-16T12:54:38Z,42.805,6.029,13.2976,4.59990,2470.03,2020-4-16T14:55:18Z
2020-04-16T12:57:41Z,42.805,6.029,13.2983,4.59978,2470.03,2020-4-16T14:58:21Z
2020-04-16T13:00:45Z,42.805,6.029,13.2976,4.59978,2470.04,2020-4-16T15:01:24Z
2020-04-16T13:03:48Z,42.805,6.029,13.2974,4.59982,2470.04,2020-4-16T15:04:28Z
2020-04-16T13:06:51Z,42.805,6.029,13.2979,4.59994,2470.04,2020-4-16T15:07:31Z
2020-04-16T13:09:55Z,42.805,6.029,13.2979,4.59998,2470.053,2020-4-16T15:10:34Z
2020-04-16T13:12:58Z,42.805,6.029,13.2991,4.59980,2470.053,2020-4-16T15:13:38Z
2020-04-16T13:16:01Z,42.805,6.029,13.2981,4.59988,2470.04,2020-4-16T15:16:41Z
2020-04-16T13:19:05Z,42.805,6.029,13.2990,4.59996,2470.053,2020-4-16T15:19:44Z
2020-04-16T13:22:08Z,42.805,6.029,13.2979,4.59994,2470.017,2020-4-16T15:22:47Z
2020-04-16T13:25:11Z,42.805,6.029,13.2982,4.59996,2470.087,2020-4-16T15:25:51Z
2020-04-16T13:28:14Z,42.805,6.029,13.2979,4.59999,2470.063,2020-4-16T15:28:54Z
2020-04-16T13:31:17Z,42.805,6.029,13.2989,4.59996,2470.017,2020-4-16T15:31:57Z
2020-04-16T13:34:21Z,42.805,6.029,13.2984,4.59996,2470.03,2020-4-16T15:35:00Z
2020-04-16T13:37:24Z,42.805,6.029,13.2986,4.59981,2470.017,2020-4-16T15:38:04Z
2020-04-16T13:40:27Z,42.805,6.029,13.2981,4.59978,2470.063,2020-4-16T15:41:07Z
2020-04-16T13:43:30Z,42.805,6.029,13.2978,4.59981,2470.007,2020-4-16T15:44:10Z
2020-04-16T13:46:34Z,42.805,6.029,13.2997,4.60008,2470.03,2020-4-16T15:47:13Z
2020-04-16T13:49:37Z,42.805,6.029,13.2981,4.59981,2470.077,2020-4-16T15:50:16Z
2020-04-16T13:52:40Z,42.805,6.029,13.2986,4.59994,2469.993,2020-4-16T15:53:20Z
2020-04-16T13:55:43Z,42.805,6.029,13.2986,4.59976,2470.04,2020-4-16T15:56:23Z
2020-04-16T13:58:47Z,42.805,6.029,13.2981,4.60001,2470.03,2020-4-16T15:59:26Z
2020-04-16T14:01:50Z,42.805,6.029,13.2981,4.59979,2470.04,2020-4-16T16:02:29Z
2020-04-16T14:04:53Z,42.805,6.029,13.2972,4.59984,2470.053,2020-4-16T16:05:33Z
2020-04-16T14:07:56Z,42.805,6.029,13.2982,4.59980,2470.053,2020-4-16T16:08:36Z
2020-04-16T14:10:59Z,42.805,6.029,13.2976,4.59989,2470.053,2020-4-16T16:11:39Z
2020-04-16T14:14:03Z,42.805,6.029,13.2983,4.59991,2470.077,2020-4-16T16:14:42Z
2020-04-16T14:17:06Z,42.805,6.029,13.2984,4.60001,2470.04,2020-4-16T16:17:45Z
2020-04-16T14:20:09Z,42.805,6.029,13.2979,4.59981,2470.04,2020-4-16T16:20:49Z
2020-04-16T14:23:12Z,42.805,6.029,13.2994,4.60005,2470.053,2020-4-16T16:23:52Z
2020-04-16T14:26:15Z,42.805,6.029,13.2989,4.60005,2470.04,2020-4-16T16:26:55Z
2020-04-16T14:29:19Z,42.805,6.029,13.2989,4.60000,2470.007,2020-4-16T16:29:58Z
2020-04-16T14:32:22Z,42.805,6.029,13.2982,4.59996,2470.017,2020-4-16T16:33:01Z
2020-04-16T14:35:25Z,42.805,6.029,13.2987,4.59976,2470.077,2020-4-16T16:36:05Z
2020-04-16T14:38:28Z,42.805,6.029,13.2976,4.59982,2470.04,2020-4-16T16:39:08Z
2020-04-16T14:41:31Z,42.805,6.029,13.2982,4.60002,2470.04,2020-4-16T16:42:11Z
2020-04-16T14:44:35Z,42.805,6.029,13.2985,4.59999,2470.04,2020-4-16T16:45:14Z
2020-04-16T14:47:38Z,42.805,6.029,13.2989,4.59996,2470.03,2020-4-16T16:48:17Z
2020-04-16T14:50:41Z,42.805,6.029,13.2983,4.59998,2470.04,2020-4-16T16:51:21Z
2020-04-16T14:53:44Z,42.805,6.029,13.2991,4.60006,2470.04,2020-4-16T16:54:24Z
2020-04-16T14:56:47Z,42.805,6.029,13.2988,4.60001,2470.04,2020-4-16T16:57:27Z
2020-04-16T14:59:51Z,42.805,6.029,13.2987,4.59991,2470.063,2020-4-16T17:00:30Z
2020-04-16T15:02:54Z,42.805,6.029,13.2983,4.59997,2470.04,2020-4-16T17:03:33Z
2020-04-16T15:05:57Z,42.805,6.029,13.2979,4.59994,2470.04,2020-4-16T17:06:37Z
2020-04-16T15:09:00Z,42.805,6.029,13.2983,4.59977,2470.026,2020-4-16T17:09:40Z
2020-04-16T15:12:04Z,42.805,6.029,13.2987,4.60001,2469.993,2020-4-16T17:12:43Z
2020-04-16T15:15:07Z,42.805,6.029,13.2972,4.59987,2470.053,2020-4-16T17:15:47Z